Regional Weather Roundup
Issued by NWS Binghamton, NY

Home | Current Version | Previous Version | Text Only | Print | Product List | Glossary On
Versions: 1 2 3 4 5 6 7 8 9 10 11 12 13 14 15 16 17 18 19 20 21 22 23 24 25 26 27 28 29 30 31 32 33 34 35 36 37 38 39 40 41 42 43 44 45 46 47 48 49 50
000
ASUS41 KBGM 300610
RWRBGM
RWRBGM
BINGHAMTON REGIONAL WEATHER ROUNDUP
NATIONAL WEATHER SERVICE BINGHAMTON NY
200 AM EDT MON MAR 30 2015

Note: "fair" indicates few or no clouds below 12,000 feet with no
significant weather and/or obstructions to visibility.

* = Station(s) that does not report precipitation, such as rain,
snow, etc, also no thunder or fog.

!NYZ009-015>018-022>025-036-037-044>046-055>057-062-300700
...CENTRAL NEW YORK...

CITY           SKY/WX    TMP DP  RH WIND       PRES   REMARKS
BINGHAMTON     CLOUDY    34  14  43 S16G25    29.87F WCI  24
CORTLAND       FLURRIES  36  19  51 SW17G28   29.87F WCI  25
DANSVILLE      CLOUDY    37  27  67 SE9       29.79F WCI  30
ELMIRA         CLOUDY    40  16  37 SW12      29.85F WCI  33
ITHACA         CLOUDY    37  14  39 S20       29.86F WCI  26
MONTICELLO     CLOUDY    30  10  43 S8        29.97F WCI  23
NORWICH        CLOUDY    34  10  37 S15G21    29.91R WCI  24
ONEONTA        CLEAR     32   7  34 S5        29.86F WCI  27
PENN YAN       CLOUDY    37  27  67 S13G21    29.80F WCI  29
ROME           CLOUDY    36  14  40 S9        29.90F WCI  29
SIDNEY         CLOUDY    37  12  35 SW12G21   29.91S WCI  30
SYRACUSE       CLOUDY    39  18  42 SW15      29.85F WCI  31
$$

!PAZ038>040-043-044-047-048-072-300700
...NORTHEAST PENNSYLVANIA...

CITY           SKY/WX    TMP DP  RH WIND       PRES   REMARKS
HAZLETON       CLOUDY    34   7  32 S7        30.00R WCI  28
SCRANTON       CLOUDY    37   7  28 SW8       29.96F WCI  31
TOWANDA*       CLEAR     39   9  28 S12G23    29.92F WCI  32
$$
&&
KEY
WCI = WIND CHILL INDEX
VSB = VISIBILITY
HX  = HEAT INDEX
$$


USA.gov is the U.S. government's official web portal to all federal, state and local government web resources and services.